TimeEDT,TemperatureF,Dew PointF,Humidity,Sea Level PressureIn,VisibilityMPH,Wind Direction,Wind SpeedMPH,Gust SpeedMPH,PrecipitationIn,Events,Conditions,WindDirDegrees,DateUTC
12:01 AM,55.4,55.4,100,30.12,1.5,East,8.1,-,N/A,,Overcast,90,2013-05-07 04:01:00
12:21 AM,55.4,55.4,100,30.12,1.5,East,8.1,-,N/A,,Overcast,80,2013-05-07 04:21:00
12:41 AM,55.6,55.6,100,30.12,1.5,East,8.1,-,N/A,,Overcast,90,2013-05-07 04:41:00
1:01 AM,55.4,55.4,100,30.11,1.5,East,9.2,-,N/A,,Overcast,90,2013-05-07 05:01:00
1:21 AM,55.6,55.6,100,30.10,1.5,East,8.1,-,N/A,,Overcast,100,2013-05-07 05:21:00
1:41 AM,55.6,55.6,100,30.10,1.8,East,9.2,-,N/A,,Overcast,100,2013-05-07 05:41:00
2:01 AM,55.6,55.6,100,30.09,1.5,East,8.1,-,N/A,,Overcast,100,2013-05-07 06:01:00
2:21 AM,55.4,55.4,100,30.08,1.2,East,6.9,-,N/A,,Overcast,100,2013-05-07 06:21:00
2:41 AM,55.4,55.4,100,30.07,1.2,East,9.2,16.1,N/A,,Overcast,90,2013-05-07 06:41:00
3:01 AM,55.6,55.6,100,30.07,1.0,East,6.9,-,N/A,,Overcast,100,2013-05-07 07:01:00
3:22 AM,55.8,55.8,100,30.06,1.0,East,6.9,-,N/A,,Overcast,90,2013-05-07 07:22:00
3:42 AM,55.9,55.9,100,30.06,1.0,East,6.9,-,N/A,,Overcast,90,2013-05-07 07:42:00
4:02 AM,56.1,56.1,100,30.06,1.2,East,5.8,-,N/A,,Overcast,100,2013-05-07 08:02:00
4:22 AM,56.1,56.1,100,30.06,1.5,East,9.2,-,N/A,,Overcast,90,2013-05-07 08:22:00
4:42 AM,56.3,56.3,100,30.06,1.5,East,8.1,-,N/A,,Overcast,90,2013-05-07 08:42:00
5:02 AM,55.9,55.9,100,30.06,2.0,East,8.1,-,N/A,,Overcast,100,2013-05-07 09:02:00
5:22 AM,55.9,55.9,100,30.06,5.0,East,9.2,-,N/A,,Overcast,100,2013-05-07 09:22:00
5:42 AM,55.9,55.9,100,30.06,2.5,East,10.4,-,N/A,,Overcast,90,2013-05-07 09:42:00
5:50 AM,55.4,55.4,100,30.06,1.8,East,9.2,-,N/A,,Overcast,80,2013-05-07 09:50:00
6:02 AM,56.3,56.3,100,30.05,1.8,East,10.4,-,N/A,,Overcast,80,2013-05-07 10:02:00
6:22 AM,56.3,56.3,100,30.05,1.2,East,9.2,-,N/A,,Overcast,90,2013-05-07 10:22:00
6:42 AM,56.5,56.5,100,30.06,1.8,East,9.2,16.1,N/A,,Overcast,90,2013-05-07 10:42:00
6:50 AM,57.2,57.2,100,30.06,1.8,East,10.4,-,N/A,,Overcast,80,2013-05-07 10:50:00
7:02 AM,56.7,56.7,100,30.06,1.8,East,12.7,-,N/A,,Overcast,90,2013-05-07 11:02:00
7:22 AM,56.7,56.7,100,30.07,1.8,East,11.5,18.4,N/A,,Overcast,100,2013-05-07 11:22:00
7:41 AM,56.7,56.7,100,30.07,2.0,ESE,9.2,17.3,0.01,Rain,Rain,110,2013-05-07 11:41:00
7:50 AM,57.2,57.2,100,30.08,2.5,East,9.2,-,N/A,Rain,Rain,90,2013-05-07 11:50:00
8:50 AM,57.2,57.2,100,30.08,4.0,East,8.1,-,N/A,Rain,Rain,80,2013-05-07 12:50:00
9:50 AM,57.2,57.2,100,30.08,10.0,ENE,8.1,-,N/A,Rain,Light Rain,70,2013-05-07 13:50:00
10:51 AM,59.0,59.0,100,30.08,7.0,East,8.1,-,N/A,Rain,Light Rain,80,2013-05-07 14:51:00
11:55 AM,59.0,59.0,100,30.07,5.0,ENE,9.2,-,N/A,Rain,Light Rain,70,2013-05-07 15:55:00
12:53 PM,60.8,60.8,100,30.06,7.0,East,9.2,-,N/A,,Overcast,90,2013-05-07 16:53:00
1:53 PM,62.6,62.6,100,30.04,7.0,East,9.2,17.3,N/A,,Overcast,90,2013-05-07 17:53:00
2:53 PM,62.6,62.6,100,30.03,10.0,East,9.2,17.3,N/A,,Overcast,100,2013-05-07 18:53:00
3:53 PM,62.6,62.6,100,30.02,7.0,East,13.8,20.7,N/A,Rain,Light Rain,90,2013-05-07 19:53:00
4:53 PM,62.6,62.6,100,30.00,10.0,East,11.5,18.4,N/A,,Overcast,100,2013-05-07 20:53:00
5:53 PM,62.6,62.6,100,29.99,10.0,East,13.8,-,N/A,,Overcast,80,2013-05-07 21:53:00
6:53 PM,60.8,60.8,100,30.00,7.0,East,11.5,-,N/A,,Overcast,80,2013-05-07 22:53:00
7:53 PM,60.8,60.8,100,30.01,7.0,East,11.5,-,N/A,,Overcast,100,2013-05-07 23:53:00
8:53 PM,60.8,60.8,100,30.01,10.0,ESE,6.9,-,N/A,,Overcast,110,2013-05-08 00:53:00
11:04 PM,58.5,58.5,100,30.03,10.0,ESE,8.1,-,N/A,,Scattered Clouds,120,2013-05-08 03:04:00
11:24 PM,59.0,59.0,100,30.03,10.0,SE,5.8,-,N/A,,Clear,130,2013-05-08 03:24:00
11:44 PM,57.9,57.9,100,30.03,10.0,ESE,3.5,-,N/A,,Clear,120,2013-05-08 03:44:00